Weather History for KLHQ - March, 2014

Change the Weather History Date:

Wednesday, March 12, 2014

  Actual Average Record
Temperature  
Mean Temperature 36 °F -  
Max Temperature 50 °F 47 °F 77 °F (1990)
Min Temperature 21 °F 27 °F 1 °F (1999)
Degree Days  
Heating Degree Days 29    
Moisture  
Dew Point 33 °F    
Average Humidity 84    
Maximum Humidity 93    
Minimum Humidity 68    
Precipitation  
Precipitation 0.67 in - - ()
Sea Level Pressure  
Sea Level Pressure 29.48 in    
Wind  
Wind Speed 10 mph (NNW)    
Max Wind Speed 30 mph    
Max Gust Speed 43 mph    
Visibility 5 miles    
Events Fog , Rain , Snow    
Averages and records for this station are not official NWS values.
T = Trace of Precipitation, MM = Missing Value Source: NWS Daily Summary

Daily Weather History Graph

Daily Weather History Graph

Search for Another Location

Airport or City:

Trip Planner

Search our weather history database for the weather conditions in past years. The results will help you decide how hot, cold, wet, or windy it might be!

Date:

Astronomy

Mar. 12, 2014 Rise Set
Actual Time 7:46 AM EDT 7:34 PM EDT
Civil Twilight 7:19 AM EDT 8:01 PM EDT
Nautical Twilight 6:48 AM EDT 8:32 PM EDT
Astronomical Twilight 6:17 AM EDT 9:04 PM EDT
Moon 4:04 PM EDT (3/12) 5:17 AM EDT (3/12)
Length of Visible Light 12h 41m
Length of Day
11h 47m
Waxing Gibbous, 85% of the Moon is Illuminated
Mar 12
Waxing Gibbous
Mar 16
Full
Mar 23
Last Quarter
Mar 30
New
Apr 7
First Quarter

Hourly Weather History & Observations

Time (EDT) Temp. Windchill Dew Point Humidity Pressure Visibility Wind Dir Wind Speed Gust Speed Precip Events Conditions
12:53 AM 51.1 °F - 42.1 °F 71% 29.57 in 9.0 mi North 5.8 mph - N/A   Partly Cloudy
1:53 AM 48.0 °F - 42.1 °F 80% 29.52 in 8.0 mi NE 9.2 mph - N/A   Partly Cloudy
2:53 AM 48.9 °F - 41.0 °F 74% 29.51 in 8.0 mi Calm Calm - N/A   Overcast
3:53 AM 48.0 °F - 39.9 °F 74% 29.47 in 7.0 mi North 4.6 mph - 0.00 in   Overcast
4:53 AM 45.0 °F 42.6 °F 41.0 °F 86% 29.42 in 5.0 mi ENE 4.6 mph - 0.05 in Rain Light Rain
5:53 AM 45.0 °F - 39.9 °F 82% 29.37 in 5.0 mi Calm Calm - 0.01 in Rain Light Rain
6:11 AM 44.1 °F 40.1 °F 41.0 °F 89% 29.38 in 2.5 mi North 6.9 mph - 0.03 in Rain Heavy Rain
6:18 AM 44.1 °F 41.5 °F 41.0 °F 89% 29.38 in 2.0 mi NNE 4.6 mph - 0.05 in Rain Rain
6:53 AM 43.0 °F 38.8 °F 39.9 °F 89% 29.35 in 1.8 mi ENE 6.9 mph - 0.16 in Rain Rain
7:11 AM 43.0 °F - 41.0 °F 93% 29.34 in 1.8 mi Calm Calm - 0.07 in Rain Rain
7:47 AM 42.8 °F 39.3 °F 39.2 °F 87% 29.31 in 2.0 mi NE 5.8 mph - 0.18 in Rain Light Rain
7:53 AM 43.0 °F 39.5 °F 41.0 °F 93% 29.32 in 2.0 mi NE 5.8 mph - 0.19 in Rain Rain
8:17 AM 43.0 °F 40.3 °F 41.0 °F 93% 29.29 in 1.8 mi East 4.6 mph - 0.02 in Rain Rain
8:25 AM 43.0 °F - 41.0 °F 93% 29.29 in 2.0 mi Calm Calm - 0.03 in Rain Light Rain
8:36 AM 43.0 °F 40.3 °F 41.0 °F 93% 29.28 in 2.5 mi East 4.6 mph - 0.03 in   Overcast
8:44 AM 43.0 °F 41.3 °F 41.0 °F 93% 29.27 in 1.8 mi East 3.5 mph - 0.03 in   Overcast
8:53 AM 43.0 °F 39.5 °F 41.0 °F 93% 29.26 in 1.5 mi East 5.8 mph - 0.03 in   Overcast
9:35 AM 43.0 °F - 41.0 °F 93% 29.23 in 1.5 mi Calm Calm - 0.01 in Rain Light Rain
9:47 AM 42.8 °F 37.5 °F 41.0 °F 93% 29.25 in 0.8 mi NW 9.2 mph - 0.06 in Rain Rain
9:53 AM 43.0 °F 38.2 °F 41.0 °F 93% 29.28 in 0.5 mi NW 8.1 mph - 0.11 in Fog , Rain Heavy Rain
10:04 AM 43.0 °F 35.7 °F 41.0 °F 93% 29.28 in 1.0 mi NW 15.0 mph 19.6 mph 0.02 in Rain Rain
10:14 AM 43.0 °F 36.8 °F 41.0 °F 93% 29.27 in 1.8 mi NNW 11.5 mph - 0.02 in Rain Light Rain
10:21 AM 43.0 °F 36.8 °F 41.0 °F 93% 29.26 in 2.0 mi NNW 11.5 mph - 0.02 in   Overcast
10:37 AM 43.0 °F 36.8 °F 41.0 °F 93% 29.25 in 2.5 mi NNW 11.5 mph 23.0 mph 0.04 in Rain Light Rain
10:45 AM 42.1 °F 34.5 °F 39.0 °F 89% 29.25 in 4.0 mi North 15.0 mph - 0.05 in Rain Rain
10:53 AM 42.1 °F 33.3 °F 39.0 °F 89% 29.25 in 2.5 mi North 19.6 mph 23.0 mph 0.06 in Rain Rain
11:00 AM 42.1 °F 35.7 °F 39.0 °F 89% 29.26 in 2.5 mi North 11.5 mph 23.0 mph 0.02 in Rain Rain
11:05 AM 42.1 °F 36.1 °F 39.0 °F 89% 29.26 in 3.0 mi NNW 10.4 mph 19.6 mph 0.03 in Rain Rain
11:32 AM 39.0 °F 31.0 °F 36.0 °F 89% 29.25 in 10.0 mi North 13.8 mph - 0.05 in   Overcast
11:45 AM 37.9 °F 27.6 °F 35.1 °F 89% 29.26 in 10.0 mi North 20.7 mph 26.5 mph 0.05 in   Overcast
11:53 AM 37.9 °F 28.9 °F 34.0 °F 86% 29.28 in 10.0 mi North 16.1 mph 27.6 mph 0.05 in   Overcast
12:53 PM 37.0 °F 28.1 °F 33.1 °F 86% 29.33 in 10.0 mi NNW 15.0 mph - N/A   Overcast
1:15 PM 36.0 °F 26.3 °F 33.1 °F 89% 29.34 in 2.5 mi NNW 16.1 mph 24.2 mph 0.00 in   Overcast
1:22 PM 36.0 °F 25.6 °F 33.1 °F 89% 29.36 in 2.0 mi NNW 18.4 mph 25.3 mph 0.00 in   Overcast
1:30 PM 36.0 °F 25.6 °F 33.1 °F 89% 29.37 in 1.5 mi NW 18.4 mph 27.6 mph 0.00 in   Overcast
1:40 PM 36.0 °F 26.0 °F 33.1 °F 89% 29.38 in 1.5 mi NW 17.3 mph 24.2 mph 0.00 in   Overcast
1:49 PM 35.6 °F 25.2 °F 33.8 °F 93% 29.39 in 1.5 mi NW 18.4 mph 25.3 mph 0.01 in   Overcast
1:53 PM 35.1 °F 24.1 °F 33.1 °F 92% 29.40 in 1.5 mi NW 19.6 mph 31.1 mph 0.01 in   Overcast
2:40 PM 34.0 °F 21.5 °F 30.0 °F 85% 29.45 in 2.5 mi NW 24.2 mph 34.5 mph 0.00 in   Overcast
2:42 PM 34.0 °F 21.3 °F 30.0 °F 85% 29.45 in 4.0 mi NNW 25.3 mph 34.5 mph 0.00 in   Overcast
2:53 PM 34.0 °F 22.4 °F 28.9 °F 82% 29.47 in 10.0 mi NNW 20.7 mph 35.7 mph 0.00 in   Overcast
3:53 PM 33.1 °F 19.1 °F 25.0 °F 72% 29.57 in 10.0 mi NNW 29.9 mph 42.6 mph N/A   Overcast
4:53 PM 32.0 °F 18.9 °F 24.1 °F 73% 29.65 in 10.0 mi NNW 24.2 mph 32.2 mph N/A   Overcast
5:40 PM 30.0 °F 18.3 °F 24.1 °F 79% 29.70 in 2.0 mi NNW 17.3 mph 26.5 mph 0.00 in Snow Light Snow
5:49 PM 28.4 °F 14.1 °F 21.2 °F 74% 29.72 in 1.8 mi NNW 24.2 mph 36.8 mph 0.00 in Snow Light Snow
5:53 PM 28.9 °F 16.9 °F 21.9 °F 75% 29.74 in 2.5 mi NNW 17.3 mph 36.8 mph 0.00 in Snow Light Snow
6:00 PM 28.9 °F 17.7 °F 21.9 °F 75% 29.73 in 7.0 mi NNW 15.0 mph 27.6 mph 0.00 in Snow Light Snow
6:45 PM 28.0 °F 16.5 °F 21.9 °F 78% 29.77 in 2.0 mi NW 15.0 mph 23.0 mph 0.00 in Snow Light Snow
6:53 PM 27.0 °F 15.6 °F 21.9 °F 81% 29.80 in 1.8 mi NNW 13.8 mph 25.3 mph 0.00 in Snow Light Snow
6:57 PM 27.0 °F 13.9 °F 21.0 °F 78% 29.78 in 2.5 mi NNW 18.4 mph 25.3 mph 0.00 in Snow Light Snow
7:04 PM 27.0 °F 14.3 °F 19.9 °F 75% 29.79 in 7.0 mi NNW 17.3 mph 28.8 mph 0.00 in Snow Light Snow
7:13 PM 27.0 °F 13.5 °F 19.9 °F 75% 29.80 in 10.0 mi NNW 19.6 mph 27.6 mph 0.00 in   Overcast
7:46 PM 27.0 °F 14.3 °F 19.0 °F 72% 29.83 in 10.0 mi NW 17.3 mph 27.6 mph 0.00 in   Overcast
7:53 PM 26.1 °F 14.5 °F 19.0 °F 75% 29.86 in 10.0 mi NW 13.8 mph 29.9 mph 0.00 in   Overcast
8:53 PM 25.0 °F 10.9 °F 18.0 °F 75% 29.90 in 10.0 mi NNW 19.6 mph - N/A   Overcast
9:53 PM 24.1 °F 11.5 °F 16.0 °F 71% 29.93 in 10.0 mi NNW 15.0 mph - N/A   Overcast
10:53 PM 21.9 °F 9.2 °F 14.0 °F 72% 29.95 in 10.0 mi NNW 13.8 mph - N/A   Mostly Cloudy
11:00 PM 21.9 °F 11.0 °F 12.9 °F 68% 29.93 in 10.0 mi NNW 10.4 mph - N/A   Scattered Clouds
11:53 PM 21.0 °F 8.6 °F 12.9 °F 71% 29.96 in 10.0 mi NW 12.7 mph - N/A   Partly Cloudy